User: anonymous   Login
Location: Newark
(35.2161°N, 26.1013°E)
Time: 21:11:13
(UTC+00:00)
Language:

EO-79 - Orbit

View from above orbital plane
View from above orbital plane
View from above satellite
View from above satellite

Ground track
Ground track

The orbit data is extracted from the following two-line orbital elements,

1 40025U 14033R   20027.20126562 +.00000224 +00000-0 +29712-4 0  9990
2 40025 097.9127 311.5675 0013575 051.2830 308.9598 14.89059183303923
Epoch (UTC): 27 January 2020 04:49:49
Eccentricity: 0.0013575
inclination: 97.9127°
perigee height: 591 km
apogee height: 610 km
right ascension of ascending node: 311.5675°
argument of perigee: 51.2830°
revolutions per day: 14.89059183
mean anomaly at epoch: 308.9598°
orbit number at epoch: 30392

The dashed part of the orbit path shows where the satellite is in the earth's shadow,  

DLR